Jaffrey, NH

1:35 PM EST on February 18, 2018 (GMT -0500)
Jaffrey Airport-Silver Ranch

Weather History for KAFN - April, 2013

Change the Weather History Date:

Wednesday, April 3, 2013

  Actual Average Record
Temperature  
Mean Temperature 32 °F -  
Max Temperature 39 °F 45 °F 61 °F (2002)
Min Temperature 24 °F 26 °F 19 °F (1997)
Degree Days  
Heating Degree Days 34    
Moisture  
Dew Point 8 °F    
Average Humidity 39    
Maximum Humidity 53    
Minimum Humidity 21    
Precipitation  
Precipitation 0.00 in - - ()
Sea Level Pressure  
Sea Level Pressure 30.01 in    
Wind  
Wind Speed 11 mph (WNW)    
Max Wind Speed 16 mph    
Max Gust Speed 32 mph    
Visibility 10 miles    
Events      
Averages and records for this station are not official NWS values.
T = Trace of Precipitation, MM = Missing Value Source: NWS Daily Summary

Daily Weather History Graph

Daily Weather History Graph

Search for Another Location

Airport or City:

Trip Planner

Search our weather history database for the weather conditions in past years. The results will help you decide how hot, cold, wet, or windy it might be!

Date:

Astronomy

Apr. 03, 2013 Rise Set
Actual Time 6:26 AM EDT 7:16 PM EDT
Civil Twilight 5:57 AM EDT 7:45 PM EDT
Nautical Twilight 5:23 AM EDT 8:19 PM EDT
Astronomical Twilight 4:48 AM EDT 8:55 PM EDT
Moon 2:13 AM EDT (4/3) 12:16 PM EDT (4/3)
Length of Visible Light 13h 47m
Length of Day
12h 50m
Last Quarter, 45% of the Moon is Illuminated
Apr 3
Last Quarter
Apr 10
New
Apr 18
First Quarter
Apr 25
Full
May 2
Last Quarter

Hourly Weather History & Observations

Time (EDT) Temp. Windchill Dew Point Humidity Pressure Visibility Wind Dir Wind Speed Gust Speed Precip Events Conditions
12:52 AM 28.0 °F 20.0 °F 12.9 °F 53% 29.93 in 10.0 mi West 8.1 mph 18.4 mph N/A   Overcast
1:52 AM 27.0 °F 15.6 °F 10.0 °F 49% 29.94 in 10.0 mi WNW 13.8 mph 32.2 mph N/A   Mostly Cloudy
2:52 AM 27.0 °F 18.0 °F 10.9 °F 51% 29.94 in 10.0 mi WNW 9.2 mph 19.6 mph N/A   Overcast
3:52 AM 26.1 °F 15.0 °F 8.1 °F 47% 29.93 in 10.0 mi WNW 12.7 mph 23.0 mph N/A   Clear
4:52 AM 25.0 °F 16.3 °F 8.1 °F 49% 29.94 in 10.0 mi WNW 8.1 mph 20.7 mph N/A   Clear
5:52 AM 25.0 °F 16.3 °F 9.0 °F 51% 29.96 in 10.0 mi West 8.1 mph - N/A   Clear
6:52 AM 24.1 °F 14.4 °F 9.0 °F 53% 29.98 in 10.0 mi West 9.2 mph - N/A   Clear
7:52 AM 26.1 °F 14.0 °F 10.0 °F 51% 29.99 in 10.0 mi West 15.0 mph 19.6 mph N/A   Clear
8:52 AM 28.0 °F 17.0 °F 9.0 °F 45% 29.99 in 10.0 mi WNW 13.8 mph 24.2 mph N/A   Clear
9:52 AM 28.9 °F 17.3 °F 8.1 °F 41% 29.98 in 10.0 mi WNW 16.1 mph 28.8 mph N/A   Clear
10:52 AM 30.9 °F 21.2 °F 7.0 °F 37% 29.99 in 10.0 mi WNW 12.7 mph 23.0 mph N/A   Clear
11:52 AM 33.1 °F 23.0 °F 7.0 °F 34% 29.99 in 10.0 mi WNW 15.0 mph 29.9 mph N/A   Clear
12:52 PM 36.0 °F 26.3 °F 5.0 °F 27% 29.98 in 10.0 mi West 16.1 mph 28.8 mph N/A   Clear
1:52 PM 36.0 °F 27.1 °F 5.0 °F 27% 29.98 in 10.0 mi WSW 13.8 mph 25.3 mph N/A   Clear
2:52 PM 37.9 °F 29.2 °F 3.0 °F 23% 29.97 in 10.0 mi West 15.0 mph 27.6 mph N/A   Clear
3:52 PM 39.0 °F 31.0 °F 5.0 °F 24% 29.97 in 10.0 mi West 13.8 mph 23.0 mph N/A   Clear
4:52 PM 39.0 °F 32.3 °F 1.9 °F 21% 29.98 in 10.0 mi NW 10.4 mph 31.1 mph N/A   Clear
5:52 PM 37.9 °F 29.2 °F 6.1 °F 27% 30.01 in 10.0 mi WNW 15.0 mph 21.9 mph N/A   Clear
6:52 PM 36.0 °F 27.5 °F 6.1 °F 29% 30.04 in 10.0 mi West 12.7 mph 23.0 mph N/A   Clear
7:52 PM 33.1 °F 26.9 °F 9.0 °F 37% 30.08 in 10.0 mi Variable 6.9 mph 20.7 mph N/A   Clear
8:52 PM 32.0 °F 22.5 °F 9.0 °F 38% 30.12 in 10.0 mi WNW 12.7 mph 24.2 mph N/A   Clear
9:52 PM 30.9 °F 22.2 °F 10.0 °F 42% 30.15 in 10.0 mi WNW 10.4 mph 20.7 mph N/A   Clear
10:52 PM 30.0 °F 22.4 °F 10.9 °F 45% 30.16 in 10.0 mi NW 8.1 mph 20.7 mph N/A   Clear
11:52 PM 30.0 °F 21.1 °F 10.9 °F 45% 30.17 in 10.0 mi WNW 10.4 mph 21.9 mph N/A   Clear